Regional Weather Roundup
Issued by NWS

Home | Current Version | Previous Version | Graphics & Text | Print | Product List | Glossary On
Versions: 1 2 3 4 5 6 7 8 9 10 11 12 13 14 15 16 17 18 19 20 21 22 23 24 25 26 27 28 29 30 31 32 33 34 35 36 37 38 39 40 41 42 43 44 45 46 47 48 49 50
000
ASUS45 KTFX 220710
RWRMT
MONTANA REGIONAL WEATHER ROUNDUP
NATIONAL WEATHER SERVICE GREAT FALLS MT
100 AM MDT FRI MAY 22 2015

NOTE: "FAIR" INDICATES FEW OR NO CLOUDS BELOW 12000 FEET WITH NO
SIGNIFICANT WEATHER AND/OR OBSTRUCTIONS TO VISIBILITY.

MTZ001>007-043-220800-
WEST OF THE DIVIDE

CITY           SKY/WX    TMP DP  RH WIND       PRES   REMARKS
KALISPELL      SUNNY     49  35  58 CALM      29.90R
MISSOULA       PTCLDY    50  45  83 NW3       29.93R
BUTTE          CLEAR     39  36  89 SE7       30.00S
MULLAN PASS    PTCLDY    49  37  63 S8        29.99R
DEER LODGE       N/A     43  39  87 CALM      30.01S
EUREKA           N/A     54  36  50 CALM        N/A
HAMILTON         N/A     48  43  81 NE2       29.93R
LIBBY            N/A     54  37  54 E5        29.89R
RONAN            N/A     53  43  69 CALM      29.96R
THOMPSON FALLS   N/A     55  39  54 NE2       29.93R
$$

MTZ008-052>055-220800-
SOUTHWEST MONTANA

CITY           SKY/WX    TMP DP  RH WIND       PRES   REMARKS
BOZEMAN        CLEAR     49  40  71 SW6       29.96S
DILLON         CLOUDY    50  42  74 CALM      29.96F
W YELLOWSTONE  CLOUDY    37  37 100 CALM      30.04S
THREE FORKS      N/A     45 -23   5 CALM      29.96S
TWIN BRIDGES     N/A     53  40  61 N7        29.96S
$$

MTZ009-010-012-014-046-048-049-054-220800-
EAST SLOPES AND CENTRAL MONTANA

CITY           SKY/WX    TMP DP  RH WIND       PRES   REMARKS
CUT BANK       CLEAR     51  31  46 E10       29.97S
GREAT FALLS    PTCLDY    52  43  71 E3        29.95S
MALMSTROM AFB  CLEAR     46  41  81 S8        29.95S
HELENA         CLEAR     50  44  80 W6        29.95S
CONRAD           N/A     47  37  68 CALM      29.99S
$$

MTZ011-013-016-021-045-047-050-051-220800-
NORTH CENTRAL MONTANA

CITY           SKY/WX    TMP DP  RH WIND       PRES   REMARKS
HAVRE          CLEAR     48  33  56 E10       29.98F
LEWISTOWN      CLEAR     46  37  71 E9        29.99F
CHINOOK          N/A     48  34  57 E5        30.01S
FORT BENTON      N/A     54  34  47 N5        29.96S
$$

MTZ017>020-022>027-061-062-220800-
NORTHEAST MONTANA

CITY           SKY/WX    TMP DP  RH WIND       PRES   REMARKS
GLASGOW        CLEAR     48  34  58 E12       30.07S
JORDAN           N/A     49  29  46 E5        30.05S
SIDNEY         CLEAR     43  36  75 CALM      30.12R
WOLF POINT     CLEAR     47  37  68 NE5       30.09S
MALTA            N/A     49  32  52 E6        30.01S
PLENTYWOOD       N/A     54  34  47 SE8       30.11S
POPLAR           N/A     52  36  54 CALM      30.10S
$$

MTZ028>42-056>058-220800-
SOUTHCENTRAL AND SOUTHEAST MONTANA

CITY           SKY/WX    TMP DP  RH WIND       PRES   REMARKS
BAKER          CLEAR     38  31  76 SE9       30.12S WCI  31
BILLINGS       PTCLDY    50  40  68 NE5       29.97S
LIVINGSTON     PTCLDY    45  40  82 S5        29.98S
MILES CITY     CLEAR     55  29  36 SE10      30.05S
BIG TIMBER       N/A     48  39  71 CALM      30.00S
FORSYTH          N/A     48  32  53 NE6       30.02S
LAUREL           N/A     50  37  60 N2        29.95F
ROUNDUP          N/A     51  37  58 CALM      29.92S
$$

REGIONAL REPORTS...DAKOTAS

CITY           SKY/WX    TMP DP  RH WIND       PRES   REMARKS
WILLISTON      PTCLDY    55  35  47 CALM      30.12S
MINOT          CLEAR     52  36  54 SE3       30.13S
DICKINSON      CLEAR     44  33  65 S7        30.12S
BEACH          PTSUNNY   43  36  75 S6        30.13S
CROSBY         FAIR      54  37  54 S9        30.13S
WATFORD CITY   FAIR      48  32  53 CALM      30.11S
BISMARCK       CLEAR     49  42  77 NE8       30.14F
GRAND FORKS    CLEAR     41  37  86 W3        30.13S
FARGO          CLEAR     49  39  68 CALM      30.14R
BUFFALO SD       N/A     46  30  53 SE9       30.06F
RAPID CITY     CLOUDY    50  44  80 CALM      30.12F
$$

REGIONAL REPORTS...WYOMING/IDAHO/WASHINGTON

CITY           SKY/WX    TMP DP  RH WIND       PRES   REMARKS
GILLETTE       MOCLDY    47  42  83 SE7       30.05F
SHERIDAN       MOCLDY    49  42  77 SE14      30.00S
BUFFALO WY     CLOUDY    46  42  86 S9        30.04F
CODY           CLOUDY    48  43  81 SW12      30.00F
YELLOWSTONE LA   N/A     32  30  92 CALM      30.09S
IDAHO FALLS    CLOUDY    52  45  77 SW3       29.95S
SALMON         MOCLDY    52  45  76 S5        29.93S
BOISE          PTCLDY    58  47  66 CALM      29.86R
SPOKANE        MOCLDY    63  51  65 S8        29.85R
$$

REGIONAL REPORTS...ALBERTA

CITY           SKY/WX    TMP DP  RH WIND       PRES   REMARKS
EDMONTON       CLEAR     50  32  50 SE2       29.95R
CALGARY        CLEAR     50  30  46 CALM      29.97F
LETHBRIDGE     CLEAR     46  32  57 S5        29.96S
MEDICINE HAT   CLEAR     48  28  46 N3        30.00S
$$

REGIONAL REPORTS...SASKATCHEWAN

CITY           SKY/WX    TMP DP  RH WIND       PRES   REMARKS
SWIFT CURRENT  CLEAR     48  32  53 S13       30.08S
REGINA         CLEAR     50  36  57 SE13      30.12R
SASKATOON      CLEAR     54  32  43 S8        30.06F
$$


USA.gov is the U.S. government's official web portal to all federal, state and local government web resources and services.